SCP
0 0 0 0 0 0 1 1 1 0 0 1 0 0 0 0 -0 -0 -0 -0 -0 -0 0 0 0 0 0 0 0 0 0 0
0 0 0 0 0 1 2 1 1 1 1 1 0 0 0 0 0 0 0 0 -0 0 0 0 0 0 0 0 0 0 0 0
0 0 0 0 0 0 1 2 2 1 5 2 0 0 0 0 0 0 0 0 0 0 0 0 0 0 0 0 0 0 0 0
0 0 0 0 0 0 2 1 5 5 7 12 7 0 1 0 1 1 0 1 0 1 1 0 -0 1 0 0 0 0 0 0
0 0 0 0 0 1 2 6 8 4 4 5 8 6 2 1 1 1 1 1 2 1 1 1 1 0 0 0 0 0 0 0
0 0 0 0 0 0 1 2 5 6 7 5 6 7 7 3 2 3 2 2 2 3 2 1 1 1 1 0 0 0 0 0
0 0 0 0 0 0 1 2 5 5 6 4 6 5 5 4 5 4 3 3 3 3 2 1 2 1 1 1 1 0 0 0
0 0 0 0 0 0 0 3 3 5 6 7 5 3 3 4 3 2 3 3 3 3 2 2 2 2 1 1 1 0 0 1
0 0 0 0 0 1 1 2 6 5 7 5 3 2 2 1 1 2 2 3 3 3 2 1 2 1 1 1 1 1 0 1
0 0 0 0 0 0 0 1 1 4 4 4 4 3 2 2 2 1 1 2 2 3 3 2 1 2 1 1 0 1 1 0
0 0 0 0 0 0 0 0 2 1 2 4 -0 1 -1 1 2 2 1 2 2 3 3 2 3 2 1 0 2 3 1 1
0 0 0 0 0 0 0 0 0 0 2 2 2 4 -0 1 0 1 1 1 1 1 2 2 3 1 1 2 2 4 2 1
0 0 0 0 0 0 0 0 0 0 0 2 2 1 2 1 3 4 3 1 1 1 2 3 2 1 1 2 4 4 3 3
0 0 0 0 0 0 0 0 0 0 0 0 2 2 1 1 3 1 3 1 2 1 1 1 2 1 1 3 3 2 7 4
0 0 0 0 0 0 0 0 0 0 0 1 1 1 2 2 2 2 1 0 1 -0 1 1 1 2 3 3 3 5 5 7
0 0 0 0 0 0 0 0 0 0 0 0 0 0 0 0 1 1 0 0 1 3 2 3 1 2 3 4 4 5 10 4
0 0 0 0 0 0 0 0 0 0 0 0 1 1 0 0 0 1 0 0 1 1 1 3 4 4 6 6 5 2 5 3
0 0 0 0 0 0 0 0 0 0 0 0 0 0 1 0 0 0 1 1 1 1 3 5 6 6 5 6 5 5 4 4
0 0 0 0 0 0 0 0 0 0 0 0 0 0 0 1 0 0 0 1 1 1 2 3 3 6 5 5 4 4 3 5
0 0 0 0 0 0 0 0 0 0 0 0 0 0 0 1 1 0 0 0 0 1 1 2 3 3 4 3 3 3 4 4
Wind_Speed_500mb
19 30 28 7 17 43 46 36 45 48 44 59 65 64 62 59 55 51 47 40 30 22 27 27 28 30 31 29 29 29 29 30
13 27 32 11 20 9 41 43 40 49 42 47 54 63 62 61 58 54 50 46 36 32 30 29 23 22 28 28 27 22 22 24
17 20 30 24 16 28 20 43 45 46 50 40 41 49 56 59 59 59 55 49 42 41 34 25 29 29 24 21 26 26 35 34
39 25 30 21 20 28 29 30 42 49 62 35 38 39 47 44 52 53 55 54 46 46 41 38 36 32 24 29 34 29 34 37
39 26 22 20 17 25 32 33 51 55 31 59 28 32 44 48 43 45 48 51 54 47 47 37 37 35 38 41 42 40 42 43
43 31 33 17 32 33 39 33 44 47 47 66 58 49 43 36 47 51 57 58 52 57 49 40 36 34 34 32 37 42 42 39
38 29 32 27 33 33 37 45 39 48 50 25 62 55 61 62 38 54 54 63 61 56 52 46 43 39 38 41 39 38 39 33
37 25 28 30 28 22 29 46 54 47 51 28 25 65 65 63 61 50 60 64 66 48 60 52 44 47 45 48 44 48 44 40
24 33 22 16 19 21 23 35 38 51 54 62 50 27 61 80 79 75 68 65 67 61 64 55 51 55 38 43 39 46 45 46
45 35 32 15 16 23 21 25 27 28 58 50 76 76 44 59 50 60 70 63 67 74 63 62 63 70 56 66 51 55 51 35
49 44 28 32 18 28 27 23 20 21 34 45 59 79 95 106 87 80 72 53 59 68 56 77 70 72 61 62 64 67 53 55
31 28 29 26 26 19 13 21 22 31 35 39 44 50 84 109 107 99 89 83 72 56 73 80 81 72 72 61 75 97 77 61
21 26 27 27 22 21 18 12 15 18 28 40 47 55 60 70 60 65 72 80 72 85 80 102 91 82 75 78 97 92 76 56
19 19 16 17 21 17 16 13 11 15 21 23 35 47 56 57 58 56 67 85 82 108 93 83 88 72 84 102 96 81 62 65
24 26 24 19 12 16 19 17 10 13 17 18 25 33 40 52 52 56 63 69 53 107 79 80 81 83 99 100 82 77 63 77
34 29 14 15 13 13 15 11 16 20 21 25 22 24 36 40 41 43 56 71 59 45 53 86 77 63 69 61 78 82 75 88
20 15 18 18 16 17 15 19 23 25 26 28 27 30 35 39 43 45 52 55 52 63 65 41 46 61 64 58 54 67 65 78
10 17 28 33 34 27 29 32 32 30 33 34 35 32 33 35 42 45 54 59 62 55 51 50 55 55 59 61 61 64 66 73
22 20 27 28 21 26 30 32 32 37 39 36 35 39 40 38 42 47 50 53 55 58 60 64 57 61 64 62 63 68 69 75
22 25 26 25 27 30 32 32 33 38 45 50 54 48 49 45 46 47 51 56 58 60 60 59 59 65 74 74 71 71 75 76
Wind_Direction_500mb
324 316 336 325 256 179 201 210 208 191 185 205 204 206 207 207 209 210 210 212 215 229 239 243 250 255 260 264 269 277 284 283
290 306 308 329 279 262 201 212 215 198 187 224 213 214 213 213 213 213 213 217 209 226 238 244 268 272 265 274 273 280 294 296
263 279 282 284 241 246 183 199 205 207 183 215 235 221 222 219 218 220 218 215 216 217 226 229 260 279 298 291 300 274 282 295
245 247 245 298 225 235 204 195 198 198 189 192 209 226 220 227 222 227 226 227 223 226 231 228 211 237 263 283 283 278 264 270
236 228 220 213 174 220 223 210 222 227 237 218 215 189 203 223 219 231 241 230 224 227 238 235 239 233 229 231 236 247 258 262
238 215 205 224 215 215 223 199 222 231 227 219 214 207 205 221 227 217 240 240 233 227 235 245 247 239 243 256 253 253 260 267
244 200 201 207 223 218 214 205 204 215 224 194 215 217 212 212 206 220 232 243 241 235 240 239 240 245 245 253 263 267 267 266
217 207 194 211 229 212 202 204 204 210 219 211 208 226 225 225 223 227 236 244 249 247 247 245 238 253 247 246 255 258 268 267
203 203 184 192 225 227 194 191 212 219 222 224 226 241 233 233 232 235 234 238 249 249 244 240 244 249 271 265 268 261 259 270
220 216 220 208 238 249 218 198 192 215 231 234 227 230 240 235 246 248 237 251 244 249 254 254 247 242 259 269 266 261 266 266
205 210 224 224 224 256 249 227 201 217 223 220 234 229 248 251 254 253 257 251 252 249 251 259 251 252 245 247 264 273 271 261
172 192 217 224 231 237 259 248 226 185 198 221 224 235 245 238 251 256 256 255 251 257 273 264 258 250 251 251 264 266 261 263
206 190 211 201 216 232 233 237 247 213 210 203 210 230 235 238 241 239 245 252 245 241 261 251 253 262 259 261 254 257 259 261
191 153 168 197 208 226 216 257 249 237 235 229 216 224 235 237 232 227 231 250 256 251 262 259 251 243 255 257 263 257 260 270
173 188 201 197 216 233 233 257 227 275 277 248 230 238 247 244 244 239 240 246 280 223 244 249 238 233 251 254 252 258 274 269
194 193 215 232 243 243 261 271 265 268 268 273 273 261 260 260 254 254 248 257 255 241 261 262 241 245 253 260 252 253 258 258
216 183 228 250 251 260 251 253 263 266 269 275 273 277 277 269 255 239 246 252 261 251 246 279 262 253 252 255 252 248 253 256
242 245 252 252 247 249 262 264 264 267 268 258 265 268 274 276 278 263 256 249 251 256 249 250 258 253 247 246 254 261 256 247
252 271 289 294 280 263 258 260 264 265 268 262 263 267 268 266 270 271 261 262 258 255 256 255 246 251 254 250 255 256 243 239
240 242 257 279 287 289 291 292 296 281 274 273 268 265 266 261 263 265 270 262 254 256 259 259 248 248 251 253 250 238 236 241
Wind_Speed_850mb
19 30 28 7 17 43 46 36 45 48 44 59 65 64 62 59 55 51 47 40 30 22 27 27 28 30 31 29 29 29 29 30
13 27 32 11 20 9 41 43 40 49 42 47 54 63 62 61 58 54 50 46 36 32 30 29 23 22 28 28 27 22 22 24
17 20 30 24 16 28 20 43 45 46 50 40 41 49 56 59 59 59 55 49 42 41 34 25 29 29 24 21 26 26 35 34
39 25 30 21 20 28 29 30 42 49 62 35 38 39 47 44 52 53 55 54 46 46 41 38 36 32 24 29 34 29 34 37
39 26 22 20 17 25 32 33 51 55 31 59 28 32 44 48 43 45 48 51 54 47 47 37 37 35 38 41 42 40 42 43
43 31 33 17 32 33 39 33 44 47 47 66 58 49 43 36 47 51 57 58 52 57 49 40 36 34 34 32 37 42 42 39
38 29 32 27 33 33 37 45 39 48 50 25 62 55 61 62 38 54 54 63 61 56 52 46 43 39 38 41 39 38 39 33
37 25 28 30 28 22 29 46 54 47 51 28 25 65 65 63 61 50 60 64 66 48 60 52 44 47 45 48 44 48 44 40
24 33 22 16 19 21 23 35 38 51 54 62 50 27 61 80 79 75 68 65 67 61 64 55 51 55 38 43 39 46 45 46
45 35 32 15 16 23 21 25 27 28 58 50 76 76 44 59 50 60 70 63 67 74 63 62 63 70 56 66 51 55 51 35
49 44 28 32 18 28 27 23 20 21 34 45 59 79 95 106 87 80 72 53 59 68 56 77 70 72 61 62 64 67 53 55
31 28 29 26 26 19 13 21 22 31 35 39 44 50 84 109 107 99 89 83 72 56 73 80 81 72 72 61 75 97 77 61
21 26 27 27 22 21 18 12 15 18 28 40 47 55 60 70 60 65 72 80 72 85 80 102 91 82 75 78 97 92 76 56
19 19 16 17 21 17 16 13 11 15 21 23 35 47 56 57 58 56 67 85 82 108 93 83 88 72 84 102 96 81 62 65
24 26 24 19 12 16 19 17 10 13 17 18 25 33 40 52 52 56 63 69 53 107 79 80 81 83 99 100 82 77 63 77
34 29 14 15 13 13 15 11 16 20 21 25 22 24 36 40 41 43 56 71 59 45 53 86 77 63 69 61 78 82 75 88
20 15 18 18 16 17 15 19 23 25 26 28 27 30 35 39 43 45 52 55 52 63 65 41 46 61 64 58 54 67 65 78
10 17 28 33 34 27 29 32 32 30 33 34 35 32 33 35 42 45 54 59 62 55 51 50 55 55 59 61 61 64 66 73
22 20 27 28 21 26 30 32 32 37 39 36 35 39 40 38 42 47 50 53 55 58 60 64 57 61 64 62 63 68 69 75
22 25 26 25 27 30 32 32 33 38 45 50 54 48 49 45 46 47 51 56 58 60 60 59 59 65 74 74 71 71 75 76
Wind_Direction_850mb
324 316 336 325 256 179 201 210 208 191 185 205 204 206 207 207 209 210 210 212 215 229 239 243 250 255 260 264 269 277 284 283
290 306 308 329 279 262 201 212 215 198 187 224 213 214 213 213 213 213 213 217 209 226 238 244 268 272 265 274 273 280 294 296
263 279 282 284 241 246 183 199 205 207 183 215 235 221 222 219 218 220 218 215 216 217 226 229 260 279 298 291 300 274 282 295
245 247 245 298 225 235 204 195 198 198 189 192 209 226 220 227 222 227 226 227 223 226 231 228 211 237 263 283 283 278 264 270
236 228 220 213 174 220 223 210 222 227 237 218 215 189 203 223 219 231 241 230 224 227 238 235 239 233 229 231 236 247 258 262
238 215 205 224 215 215 223 199 222 231 227 219 214 207 205 221 227 217 240 240 233 227 235 245 247 239 243 256 253 253 260 267
244 200 201 207 223 218 214 205 204 215 224 194 215 217 212 212 206 220 232 243 241 235 240 239 240 245 245 253 263 267 267 266
217 207 194 211 229 212 202 204 204 210 219 211 208 226 225 225 223 227 236 244 249 247 247 245 238 253 247 246 255 258 268 267
203 203 184 192 225 227 194 191 212 219 222 224 226 241 233 233 232 235 234 238 249 249 244 240 244 249 271 265 268 261 259 270
220 216 220 208 238 249 218 198 192 215 231 234 227 230 240 235 246 248 237 251 244 249 254 254 247 242 259 269 266 261 266 266
205 210 224 224 224 256 249 227 201 217 223 220 234 229 248 251 254 253 257 251 252 249 251 259 251 252 245 247 264 273 271 261
172 192 217 224 231 237 259 248 226 185 198 221 224 235 245 238 251 256 256 255 251 257 273 264 258 250 251 251 264 266 261 263
206 190 211 201 216 232 233 237 247 213 210 203 210 230 235 238 241 239 245 252 245 241 261 251 253 262 259 261 254 257 259 261
191 153 168 197 208 226 216 257 249 237 235 229 216 224 235 237 232 227 231 250 256 251 262 259 251 243 255 257 263 257 260 270
173 188 201 197 216 233 233 257 227 275 277 248 230 238 247 244 244 239 240 246 280 223 244 249 238 233 251 254 252 258 274 269
194 193 215 232 243 243 261 271 265 268 268 273 273 261 260 260 254 254 248 257 255 241 261 262 241 245 253 260 252 253 258 258
216 183 228 250 251 260 251 253 263 266 269 275 273 277 277 269 255 239 246 252 261 251 246 279 262 253 252 255 252 248 253 256
242 245 252 252 247 249 262 264 264 267 268 258 265 268 274 276 278 263 256 249 251 256 249 250 258 253 247 246 254 261 256 247
252 271 289 294 280 263 258 260 264 265 268 262 263 267 268 266 270 271 261 262 258 255 256 255 246 251 254 250 255 256 243 239
240 242 257 279 287 289 291 292 296 281 274 273 268 265 266 261 263 265 270 262 254 256 259 259 248 248 251 253 250 238 236 241